Temperature
19 19 20 20 17 15 16 18 20 20 21 23 24 24 22 21 22 21 21 20 20 20 20 18 17 16 15 15 15 14 14 14 14 13 12 11 12 12 12 12 12 12 13 14 14 13 13 13 13
19 19 20 19 15 16 17 19 21 21 22 23 24 24 22 20 21 21 21 20 20 20 20 19 17 16 15 15 15 15 15 14 14 13 12 12 12 12 12 12 12 13 13 14 14 14 14 14 13
18 19 19 15 15 15 18 20 21 22 23 23 23 23 22 21 21 21 21 21 20 20 20 19 18 16 15 15 15 15 15 14 14 13 12 12 12 12 12 13 13 13 13 14 14 14 14 14 13
18 18 18 14 16 16 17 18 20 22 23 23 23 21 21 21 21 21 21 21 20 20 20 19 18 17 16 16 15 15 15 15 15 14 13 13 13 13 13 13 13 13 13 14 14 14 14 14 14
17 17 15 14 15 16 17 19 21 21 22 23 22 20 20 21 21 21 21 20 20 20 19 19 18 18 17 16 15 15 15 15 15 14 13 13 13 13 13 13 13 13 14 14 14 14 14 14 14
17 14 13 13 15 16 17 20 21 21 21 22 22 20 20 20 20 20 20 20 20 20 19 19 18 18 17 16 16 16 15 15 15 15 14 14 13 13 13 13 13 14 14 14 14 14 14 14 14
15 12 13 14 14 15 18 20 21 21 21 22 22 19 20 21 21 20 20 19 19 19 19 19 19 19 18 17 16 16 15 15 15 15 15 15 14 13 13 14 14 14 14 14 14 14 14 14 14
15 12 13 13 14 15 18 20 21 22 21 22 22 20 20 21 21 20 20 20 19 19 19 19 19 19 18 17 17 16 15 15 15 15 15 15 14 14 14 14 14 14 14 14 14 14 14 14 14
14 12 12 13 14 15 18 19 21 22 22 22 22 22 22 22 21 20 20 20 19 19 19 19 18 18 18 17 17 16 16 16 15 15 15 15 14 14 14 14 14 13 13 13 13 13 14 13 13
13 11 12 14 15 16 17 18 19 20 20 21 22 22 21 21 21 20 20 20 20 20 19 19 19 18 18 17 16 16 16 16 15 15 14 14 14 14 14 13 13 13 13 13 13 13 13 13 13
12 11 13 15 17 17 17 18 19 19 19 20 21 21 21 21 21 20 21 21 21 21 20 19 19 18 17 17 16 15 15 15 15 14 14 14 13 13 13 13 13 12 12 12 12 12 12 12 12
12 12 14 15 17 17 17 17 18 19 20 21 21 21 21 20 20 21 21 21 21 21 20 20 19 18 17 17 16 15 15 15 14 14 14 13 13 13 13 12 12 12 12 12 12 12 12 12 12
11 12 14 15 15 16 17 16 17 18 20 20 20 21 21 21 21 21 21 21 22 21 21 20 19 18 17 16 16 15 15 14 14 14 13 13 13 13 13 12 12 12 12 12 12 12 12 13 13
11 12 13 14 15 15 15 16 16 17 19 20 20 20 21 21 21 21 21 21 21 22 21 19 18 18 17 16 15 15 14 14 14 13 13 13 13 13 12 12 12 12 12 12 12 12 12 13 13
11 11 11 13 13 14 15 15 15 18 19 19 20 20 20 20 20 21 21 21 21 21 21 19 18 17 16 16 15 15 14 14 14 13 13 13 13 12 12 12 12 12 12 12 12 12 12 12 12
10 10 10 12 13 14 14 14 16 18 19 19 20 20 20 20 20 20 20 20 20 20 20 18 17 17 16 15 15 14 14 14 14 13 13 13 12 12 12 12 12 12 12 12 12 12 11 11 10
9 9 9 11 13 14 14 13 15 18 18 18 19 20 20 19 19 19 20 19 19 19 18 18 17 17 16 15 14 14 14 14 14 13 13 12 12 12 12 12 12 12 11 11 11 10 9 9 9
8 8 9 10 12 13 13 14 14 17 18 18 19 19 19 19 19 19 19 18 18 18 17 17 17 16 15 15 14 14 14 13 13 13 12 12 12 12 12 12 11 11 10 10 9 9 8 8 8
8 9 8 10 12 12 13 14 14 15 16 16 18 18 18 18 18 18 18 18 17 16 16 16 17 16 15 14 14 14 13 13 13 12 12 12 12 12 11 11 11 10 10 9 8 8 7 7 7
8 8 8 9 11 12 11 12 14 15 15 17 17 17 18 17 17 17 17 16 16 15 15 15 15 15 15 14 14 14 13 13 12 12 12 12 11 11 11 10 10 9 9 8 7 7 7 6 6
8 7 8 8 10 11 11 11 13 14 15 17 18 18 18 17 17 16 16 15 15 14 14 15 15 14 14 14 14 13 13 12 12 12 12 11 11 11 10 10 9 8 8 7 6 6 6 6 5
7 9 9 9 9 9 11 11 12 13 14 15 16 17 17 16 16 15 15 15 14 14 14 14 14 14 14 13 13 13 13 13 12 12 11 11 10 10 9 9 8 8 7 6 6 5 5 5 5
7 10 10 10 9 8 10 9 11 12 14 15 15 15 16 15 16 15 15 14 14 14 13 13 13 13 13 13 13 13 13 13 12 11 11 10 10 9 9 8 8 7 6 5 5 5 4 4 4
9 9 9 9 8 8 10 9 10 12 14 15 15 15 14 14 14 14 14 13 13 13 13 13 13 13 13 13 13 13 13 12 12 11 11 10 9 9 8 8 7 6 5 5 4 4 4 3 3
8 7 7 7 8 8 10 10 11 12 14 15 15 14 13 13 13 13 13 13 13 13 12 12 12 12 12 12 12 12 12 12 11 11 10 9 8 8 7 7 6 5 5 4 4 3 3 3 3
7 7 7 6 7 8 10 11 12 13 15 16 16 15 12 11 12 12 13 13 13 12 12 12 12 12 12 12 12 12 11 11 10 9 9 8 8 7 7 6 5 5 4 3 3 3 3 3 2
7 7 8 7 8 9 10 11 12 13 14 14 14 13 11 11 10 11 12 12 12 12 12 12 12 12 12 12 12 11 11 10 9 9 8 7 7 7 6 5 5 4 3 3 3 3 2 2 2
8 8 7 7 7 8 10 11 12 13 13 12 12 11 11 10 9 10 11 11 12 12 12 12 12 12 12 12 11 11 10 9 8 8 7 7 6 6 5 5 4 3 3 3 2 2 1 1 1
7 7 8 8 8 9 11 12 14 15 14 13 12 12 11 9 9 10 11 11 11 11 11 11 11 12 11 11 11 10 9 9 8 7 6 6 6 5 5 4 3 3 2 2 2 1 1 -0 -1
8 8 8 8 8 8 9 11 14 14 14 13 12 12 10 9 9 10 11 11 11 11 11 11 11 11 11 10 10 9 9 8 7 6 6 5 5 4 3 3 2 2 2 1 1 0 -0 -1 -2
Wind_Speed
18 16 3 4 5 4 4 5 4 6 5 4 3 5 8 5 3 3 2 10 13 13 14 18 18 18 18 17 15 14 12 10 10 10 9 9 8 8 8 7 6 5 5 4 3 3 3 3 3
11 6 6 5 4 1 5 5 2 3 6 6 1 7 7 4 2 5 5 9 16 14 15 16 17 17 18 17 15 14 12 10 10 9 7 7 7 8 8 7 6 5 4 4 3 2 2 1 1
9 4 4 4 2 5 5 4 4 3 6 5 3 7 6 4 4 5 8 14 13 11 15 17 19 18 18 17 15 14 12 10 9 8 6 5 5 6 8 8 7 5 4 3 2 1 1 2 2
4 5 5 2 7 7 6 7 7 3 6 6 3 6 3 1 5 5 11 15 14 11 14 18 19 18 18 17 15 13 11 10 9 8 6 4 2 4 9 9 8 7 5 2 1 1 2 4 5
4 4 1 4 8 7 6 7 8 3 2 5 3 5 2 5 2 7 12 15 14 12 12 17 20 19 18 17 15 14 12 10 9 8 7 5 2 1 9 11 10 8 5 3 2 3 4 6 7
4 4 3 6 10 9 7 7 6 4 0 4 3 5 2 3 5 8 10 12 14 14 12 16 20 20 19 17 15 14 13 11 9 8 8 6 4 3 8 11 10 8 6 5 5 6 7 8 9
4 4 7 7 7 10 9 6 4 5 3 1 1 5 2 4 7 9 10 12 12 13 11 11 16 18 19 18 16 14 13 12 10 9 8 7 5 4 7 10 10 9 7 7 7 8 9 10 10
5 5 7 7 8 10 5 4 5 6 5 5 5 7 6 8 8 7 8 12 11 11 12 10 13 15 15 15 16 15 14 13 12 10 9 10 8 6 6 8 9 9 9 8 9 10 10 11 12
3 4 9 9 9 8 3 4 7 4 4 4 5 7 8 6 6 6 6 7 9 11 10 12 11 12 14 14 15 15 15 14 13 12 11 10 7 6 6 8 10 11 11 11 10 11 11 12 12
6 9 11 8 8 7 6 4 6 5 2 2 1 2 0 8 7 9 9 10 12 14 13 12 13 12 11 12 12 12 12 13 13 11 9 8 6 7 9 13 14 14 13 11 11 11 12 11 10
7 9 6 8 9 8 9 7 5 6 6 6 4 1 4 6 8 10 10 10 13 13 14 14 14 12 10 7 9 8 9 10 11 11 10 7 4 4 4 5 7 9 9 7 8 8 8 6 6
7 6 6 7 9 9 10 7 7 8 10 8 7 5 6 9 11 13 13 13 11 10 12 14 14 12 11 8 7 7 6 6 6 10 10 6 3 2 2 1 1 1 2 2 4 4 7 8 9
9 8 12 11 10 11 13 13 10 12 12 10 9 7 8 9 11 11 12 12 13 14 14 13 13 13 12 10 8 6 5 5 7 8 9 9 4 4 3 3 5 6 7 6 5 5 5 5 7
6 6 8 10 13 12 15 17 11 12 11 10 9 10 11 11 11 9 9 9 10 14 15 11 12 12 12 10 8 6 5 6 6 6 8 9 7 5 5 6 5 6 8 8 7 5 6 6 5
5 7 9 8 9 7 10 19 17 12 11 10 11 12 12 10 9 9 8 7 8 9 11 11 11 11 12 10 8 5 5 8 6 8 12 14 13 11 7 7 6 5 8 9 7 7 6 7 7
4 5 7 5 7 8 10 22 10 9 11 13 13 13 12 10 9 8 8 7 7 8 9 9 10 11 10 9 8 7 8 9 9 11 14 15 14 13 9 7 6 7 9 6 5 6 5 6 7
4 6 7 5 7 8 12 13 8 12 11 12 12 12 11 9 8 8 8 8 7 7 8 8 9 11 10 11 11 11 9 9 10 12 12 13 14 14 10 6 5 8 6 6 5 5 4 5 7
7 7 7 6 5 9 16 18 10 10 10 12 12 10 9 11 11 9 8 7 7 6 6 8 9 13 15 13 12 11 11 9 9 10 11 13 13 13 11 6 6 7 5 6 5 5 4 3 5
6 7 8 5 7 7 15 19 15 14 14 13 12 9 9 10 8 7 6 7 7 6 7 9 13 14 14 12 9 8 7 7 8 7 11 13 13 13 9 5 5 5 6 5 5 4 4 4 5
12 16 14 9 7 9 13 19 15 16 16 16 16 12 11 9 8 7 6 6 7 7 9 11 12 11 11 9 7 6 7 6 6 6 9 12 12 11 8 6 6 6 5 6 6 5 3 3 4
15 15 12 10 11 11 12 15 14 14 14 15 15 11 15 18 15 10 9 8 9 9 10 11 11 12 13 12 12 11 8 5 5 6 5 7 11 11 10 8 5 6 5 4 4 4 4 3 3
16 9 10 11 8 6 5 9 9 10 15 18 16 13 16 14 12 11 11 10 10 9 9 12 12 13 13 13 14 14 9 7 5 4 5 6 9 10 10 8 6 5 4 4 4 3 3 2 3
8 6 8 9 9 10 11 12 11 9 16 19 18 16 18 17 17 16 14 13 11 10 10 11 12 12 11 10 12 11 9 6 6 7 8 6 6 8 8 8 5 4 3 3 3 4 4 3 2
7 4 6 7 6 13 17 12 10 10 15 12 16 17 18 18 15 12 10 12 11 10 10 11 12 10 10 11 10 11 11 11 10 8 7 5 4 5 5 5 4 3 2 3 3 3 4 4 3
11 7 5 6 9 10 8 11 12 11 12 15 16 18 19 19 18 17 16 15 15 13 11 11 12 11 10 11 10 10 11 10 10 9 7 6 3 2 2 2 2 2 3 3 3 4 5 4 4
15 15 9 7 6 5 8 14 10 13 16 14 13 16 21 21 19 19 18 17 16 15 12 12 13 12 11 12 11 10 10 8 7 8 7 6 4 3 1 1 2 3 4 4 4 4 4 4 5
9 13 12 5 6 6 8 7 8 11 13 11 13 20 24 23 20 18 16 15 15 14 13 13 14 12 11 12 12 10 10 10 9 8 6 4 3 2 2 2 3 4 4 5 5 4 6 6 5
10 9 7 9 6 7 8 9 9 12 13 11 17 22 21 20 18 17 16 15 13 12 11 11 12 13 12 11 10 10 9 9 8 7 6 5 3 3 2 3 4 5 5 6 5 6 7 7 7
13 13 10 9 7 5 6 7 9 16 15 18 20 21 23 22 20 18 15 13 12 12 11 11 11 12 11 10 10 10 9 9 8 6 5 4 3 3 3 4 5 6 6 7 7 7 8 8 8
16 16 14 9 8 6 6 9 8 10 15 18 19 18 17 17 17 16 15 13 13 13 12 11 10 10 10 10 10 10 9 8 7 6 5 4 3 3 3 4 6 7 7 7 8 9 9 8 8
Wind_Direction
322 331 7 45 47 43 276 272 282 331 314 273 230 105 110 121 171 185 143 149 145 153 165 163 166 167 164 158 154 151 148 146 146 146 145 145 137 132 132 131 127 113 94 82 78 72 78 72 65
321 345 33 51 80 318 267 256 249 307 283 285 344 74 88 85 134 133 131 155 149 156 163 165 167 168 166 161 159 157 157 157 155 151 148 150 151 149 149 147 146 138 122 111 107 96 96 80 291
325 32 62 61 163 204 231 244 256 285 306 320 38 71 91 114 161 184 168 157 148 157 164 167 168 169 168 165 164 163 164 166 163 159 151 143 157 175 175 170 167 161 149 137 120 86 49 352 322
16 28 50 85 249 236 239 273 270 289 332 339 49 73 67 57 186 186 148 155 151 161 166 167 167 169 169 168 167 168 170 171 171 172 168 154 142 200 196 183 178 177 173 170 126 356 323 309 307
53 71 24 265 255 252 246 265 252 209 281 326 29 105 74 335 135 147 146 159 158 164 168 169 168 169 170 171 172 173 177 175 175 178 176 159 112 161 180 179 182 188 195 217 279 311 314 308 304
58 86 163 238 257 274 281 281 239 191 27 345 52 109 181 273 159 176 159 160 165 163 165 172 172 169 170 174 175 177 180 179 175 178 180 163 134 133 169 180 188 199 215 236 271 292 298 301 299
143 148 202 221 258 278 272 293 250 164 132 226 78 118 237 247 202 181 153 152 160 162 162 169 173 171 173 177 179 181 184 182 178 182 183 170 164 159 171 188 197 211 228 247 271 282 286 289 291
166 168 212 211 230 260 261 270 250 187 185 191 126 141 215 230 211 179 137 145 156 163 167 169 170 172 174 179 184 186 188 186 184 190 185 182 191 194 193 201 211 224 237 252 268 276 279 283 284
136 182 213 205 206 239 259 323 305 276 173 163 148 170 223 195 157 149 131 141 165 176 178 175 173 176 177 179 188 191 192 190 190 200 201 199 207 221 227 223 232 236 241 253 265 270 275 279 281
182 219 217 209 205 236 268 271 285 291 251 201 271 336 216 134 159 180 181 180 184 189 190 184 181 183 179 183 185 189 191 195 197 208 213 211 214 229 233 232 235 235 245 261 276 286 293 292 287
210 225 214 227 235 256 276 280 259 231 230 219 218 227 130 159 190 208 210 203 200 190 188 190 188 185 178 180 177 186 192 197 204 213 219 216 228 251 235 226 248 257 273 286 302 317 325 322 312
258 248 224 230 238 255 267 272 269 241 226 218 210 205 184 201 210 216 217 216 213 196 190 189 192 187 181 180 180 184 189 196 200 214 223 200 182 179 149 162 271 315 334 6 17 11 12 15 10
260 268 272 273 266 259 267 263 259 257 249 247 251 257 246 237 236 235 230 221 204 199 197 184 183 183 179 177 178 180 187 195 196 196 190 170 150 127 96 71 55 45 48 51 41 30 23 16 7
264 278 272 270 272 267 266 269 258 256 252 249 251 260 263 261 261 246 222 208 197 196 193 180 172 170 167 170 167 166 172 168 156 149 140 130 111 94 79 66 54 47 48 53 49 34 29 17 3
307 304 291 265 262 264 277 267 253 247 247 249 253 257 262 258 243 215 195 187 185 183 177 172 168 158 158 158 152 136 125 119 102 91 87 87 87 87 82 72 60 44 46 51 47 32 31 22 7
304 286 265 253 231 232 236 257 254 244 233 244 251 255 260 243 216 196 172 156 146 140 145 155 161 153 147 136 120 108 103 101 96 91 86 86 87 89 83 74 60 51 48 42 43 27 22 14 359
244 253 251 263 228 220 227 256 235 235 230 241 250 254 251 220 199 195 177 160 152 145 140 136 141 143 127 111 106 103 101 98 98 93 89 87 85 85 83 72 59 58 50 38 36 34 28 11 350
219 232 245 237 262 227 245 256 257 260 235 234 248 257 234 200 197 194 180 165 153 148 143 137 130 126 119 113 108 103 96 94 90 89 89 87 83 82 80 72 60 59 54 38 27 19 13 9 340
252 259 264 273 309 297 266 267 257 248 250 247 249 242 218 209 204 184 153 138 131 126 127 131 131 132 127 126 122 116 107 101 92 84 83 83 81 78 75 68 56 52 58 47 31 12 1 350 344
249 264 274 294 286 287 288 283 266 244 239 237 240 228 199 195 190 169 136 127 129 122 118 122 128 127 126 124 118 114 114 101 89 84 75 77 76 73 73 66 61 52 52 41 33 26 8 347 3
239 243 254 266 300 293 289 284 260 247 236 237 236 215 194 187 181 169 148 135 126 124 128 129 126 123 123 122 118 115 103 90 80 78 74 71 76 73 72 70 68 58 54 41 25 24 27 348 339
246 233 240 253 259 267 264 284 267 240 235 234 232 206 194 187 173 163 153 144 133 130 128 128 129 129 131 131 136 137 134 129 129 121 103 82 75 73 70 69 67 59 51 35 6 23 3 11 358
232 218 237 248 249 262 253 267 267 239 236 229 223 207 195 182 172 168 160 147 133 130 130 130 129 130 130 127 131 127 119 115 116 110 105 89 70 68 67 64 58 45 31 13 3 2 6 9 2
231 253 266 244 239 252 239 231 264 225 228 222 215 203 189 175 166 156 144 136 127 125 127 129 128 126 123 121 121 125 125 126 127 127 120 102 82 60 54 61 52 34 9 350 344 344 350 345 340
207 212 229 218 216 243 197 213 249 236 235 225 215 196 178 169 162 158 153 148 142 138 135 132 130 126 123 118 115 118 123 126 130 133 127 120 102 80 44 47 38 13 347 340 340 340 337 329 325
201 199 209 206 219 246 193 226 245 239 248 244 221 184 169 166 166 164 160 154 148 142 138 135 132 128 124 119 116 114 115 114 113 115 119 122 131 144 115 64 29 8 357 347 340 330 322 316 304
189 206 220 272 290 266 230 241 262 244 246 230 191 168 169 167 166 163 158 154 149 146 143 140 135 128 123 122 119 114 112 110 110 110 109 118 133 130 78 37 14 358 346 335 333 320 310 306 294
196 173 171 209 235 248 246 229 224 219 219 185 168 168 167 163 161 159 159 155 149 142 134 129 130 129 125 122 122 120 111 109 111 113 118 121 109 80 46 11 360 346 334 329 327 315 304 301 297
195 199 194 193 229 249 255 248 221 210 193 175 172 170 167 164 162 161 159 152 141 135 134 131 128 127 124 120 116 115 112 112 115 120 126 126 105 67 22 353 344 335 327 325 319 307 302 299 298
203 203 197 196 205 218 281 282 281 208 182 174 171 168 163 159 157 156 154 146 144 144 141 137 134 129 126 123 117 116 116 119 122 126 126 113 80 32 353 339 336 330 325 318 308 302 307 300 297
Height
1519 1518 1516 1515 1517 1526 1525 1515 1506 1502 1497 1494 1491 1491 1494 1498 1501 1506 1502 1500 1501 1501 1502 1503 1504 1506 1507 1507 1507 1508 1508 1507 1507 1507 1507 1508 1510 1511 1512 1512 1512 1511 1511 1510 1510 1509 1510 1510 1510
1518 1517 1517 1515 1524 1532 1525 1511 1504 1500 1496 1493 1490 1490 1493 1496 1498 1498 1498 1499 1501 1501 1502 1503 1504 1506 1507 1507 1507 1507 1507 1507 1506 1506 1507 1508 1509 1510 1511 1511 1512 1511 1511 1510 1509 1508 1508 1509 1509
1518 1517 1517 1518 1525 1528 1517 1506 1502 1497 1495 1493 1491 1491 1494 1497 1498 1498 1498 1499 1501 1501 1502 1503 1504 1505 1506 1507 1507 1507 1507 1507 1506 1507 1507 1507 1508 1509 1510 1511 1511 1511 1510 1510 1509 1508 1507 1507 1507
1518 1517 1517 1522 1522 1516 1510 1504 1501 1497 1495 1494 1492 1493 1496 1498 1499 1499 1498 1499 1500 1501 1502 1503 1504 1505 1506 1506 1507 1507 1507 1507 1506 1507 1507 1508 1508 1509 1510 1510 1511 1510 1510 1510 1509 1508 1507 1507 1506
1517 1516 1521 1524 1518 1509 1503 1501 1500 1496 1495 1494 1493 1494 1496 1498 1498 1498 1498 1499 1500 1501 1502 1503 1504 1505 1506 1506 1506 1507 1507 1507 1507 1507 1507 1507 1508 1509 1510 1510 1510 1510 1510 1510 1509 1509 1508 1507 1506
1516 1516 1526 1526 1516 1505 1501 1499 1497 1495 1494 1494 1493 1494 1495 1497 1497 1498 1498 1498 1500 1501 1502 1503 1503 1504 1505 1505 1506 1506 1506 1507 1507 1507 1507 1507 1508 1509 1510 1510 1510 1510 1510 1509 1509 1509 1508 1507 1506
1514 1517 1521 1518 1514 1507 1499 1496 1495 1492 1492 1493 1493 1495 1495 1496 1497 1497 1497 1498 1499 1500 1501 1502 1503 1503 1504 1505 1505 1505 1506 1506 1506 1506 1506 1507 1508 1509 1509 1510 1510 1510 1509 1509 1509 1508 1507 1506 1506
1510 1513 1514 1513 1511 1505 1496 1495 1493 1491 1490 1491 1492 1494 1495 1495 1495 1496 1497 1497 1498 1499 1500 1501 1502 1502 1503 1503 1504 1505 1505 1506 1506 1506 1506 1506 1507 1508 1509 1509 1509 1509 1509 1508 1508 1508 1507 1505 1504
1508 1513 1510 1506 1504 1498 1493 1494 1493 1491 1489 1489 1490 1492 1494 1494 1494 1495 1496 1496 1496 1497 1498 1499 1500 1501 1502 1502 1503 1504 1504 1505 1505 1506 1506 1506 1507 1508 1509 1509 1509 1509 1508 1508 1507 1507 1505 1504 1502
1504 1505 1498 1494 1493 1491 1491 1493 1493 1491 1489 1488 1489 1490 1490 1491 1493 1494 1494 1494 1494 1494 1495 1497 1498 1499 1500 1501 1502 1503 1503 1503 1505 1506 1506 1506 1507 1507 1508 1509 1508 1508 1507 1507 1506 1505 1503 1502 1500
1497 1495 1492 1490 1490 1490 1489 1490 1490 1489 1488 1487 1487 1488 1489 1490 1492 1492 1492 1492 1492 1492 1493 1494 1496 1497 1498 1499 1500 1501 1502 1503 1504 1505 1506 1506 1507 1507 1508 1508 1508 1507 1506 1505 1504 1503 1501 1499 1498
1494 1489 1488 1488 1489 1489 1488 1487 1487 1486 1485 1485 1485 1485 1487 1489 1490 1490 1490 1490 1490 1490 1490 1492 1493 1494 1495 1497 1498 1500 1501 1502 1503 1505 1506 1506 1506 1506 1507 1507 1507 1506 1505 1503 1502 1501 1499 1497 1496
1492 1489 1487 1486 1487 1487 1486 1484 1484 1482 1483 1483 1482 1482 1483 1484 1485 1486 1486 1486 1486 1486 1487 1488 1490 1491 1493 1495 1497 1498 1500 1501 1502 1504 1504 1505 1505 1506 1506 1506 1505 1504 1503 1501 1500 1499 1497 1496 1494
1488 1486 1485 1485 1484 1484 1484 1480 1479 1475 1478 1478 1478 1477 1478 1479 1480 1480 1480 1480 1481 1482 1483 1485 1487 1489 1491 1493 1495 1497 1499 1500 1501 1503 1503 1504 1505 1505 1505 1504 1504 1503 1501 1500 1499 1497 1495 1493 1490
1488 1486 1484 1481 1482 1481 1483 1475 1470 1472 1473 1472 1472 1472 1473 1474 1475 1475 1474 1475 1476 1477 1479 1481 1484 1487 1489 1492 1494 1495 1497 1498 1500 1501 1502 1503 1504 1504 1504 1503 1503 1502 1500 1499 1497 1495 1492 1489 1486
1487 1486 1485 1478 1477 1477 1483 1469 1466 1467 1467 1466 1467 1467 1468 1469 1470 1470 1470 1470 1471 1473 1475 1478 1481 1484 1487 1490 1492 1493 1494 1496 1498 1500 1501 1502 1503 1503 1503 1503 1502 1501 1499 1497 1494 1491 1488 1485 1482
1488 1488 1483 1478 1473 1473 1473 1464 1463 1463 1463 1462 1461 1461 1462 1463 1465 1466 1466 1467 1468 1470 1472 1474 1478 1481 1484 1487 1489 1490 1492 1495 1497 1499 1500 1501 1502 1502 1502 1502 1501 1499 1497 1494 1491 1488 1484 1481 1479
1486 1485 1480 1478 1472 1470 1467 1460 1461 1459 1458 1456 1456 1456 1456 1457 1459 1461 1462 1463 1465 1467 1469 1472 1474 1477 1480 1483 1486 1489 1491 1494 1496 1498 1499 1501 1502 1502 1502 1501 1499 1497 1495 1492 1489 1486 1482 1479 1476
1482 1480 1480 1478 1473 1472 1465 1458 1456 1455 1454 1452 1451 1451 1453 1454 1456 1457 1458 1459 1460 1462 1464 1467 1469 1472 1475 1479 1483 1487 1490 1493 1495 1497 1499 1500 1501 1501 1500 1499 1497 1495 1492 1489 1486 1483 1480 1476 1472
1482 1481 1480 1478 1474 1471 1465 1456 1450 1447 1446 1446 1445 1446 1448 1451 1452 1453 1454 1455 1457 1459 1461 1463 1465 1469 1474 1479 1483 1486 1489 1492 1494 1496 1498 1499 1500 1500 1499 1497 1495 1493 1490 1487 1484 1481 1477 1474 1470
1478 1480 1480 1481 1475 1469 1467 1454 1444 1438 1438 1438 1438 1439 1442 1444 1446 1448 1450 1452 1454 1457 1459 1462 1465 1470 1474 1478 1482 1485 1488 1490 1493 1495 1497 1498 1499 1498 1497 1495 1493 1491 1488 1485 1482 1478 1475 1472 1470
1474 1472 1474 1475 1477 1473 1465 1457 1439 1433 1431 1429 1429 1432 1434 1437 1441 1443 1446 1449 1452 1455 1459 1463 1467 1471 1475 1478 1481 1483 1486 1489 1492 1494 1496 1497 1497 1496 1495 1493 1491 1489 1486 1483 1480 1477 1474 1471 1468
1470 1468 1469 1470 1471 1471 1463 1463 1438 1429 1424 1419 1420 1423 1425 1430 1435 1439 1442 1445 1449 1454 1459 1463 1466 1470 1474 1477 1480 1483 1486 1488 1491 1493 1494 1495 1494 1494 1492 1491 1489 1486 1483 1480 1478 1475 1472 1469 1466
1466 1467 1467 1466 1468 1464 1450 1457 1433 1422 1413 1410 1411 1414 1418 1424 1430 1435 1439 1443 1447 1452 1458 1462 1465 1469 1472 1476 1479 1482 1485 1487 1489 1491 1492 1492 1492 1491 1490 1488 1486 1483 1480 1478 1475 1472 1470 1467 1463
1463 1469 1470 1467 1462 1452 1439 1442 1422 1410 1403 1401 1402 1405 1411 1418 1424 1430 1435 1439 1443 1449 1455 1460 1463 1467 1471 1475 1478 1481 1484 1486 1488 1489 1489 1489 1489 1489 1487 1485 1482 1480 1477 1475 1472 1469 1466 1463 1459
1454 1460 1463 1464 1458 1446 1432 1425 1410 1400 1395 1393 1395 1399 1405 1413 1420 1425 1430 1435 1440 1446 1452 1458 1462 1465 1469 1473 1476 1479 1482 1484 1485 1486 1487 1487 1487 1486 1484 1482 1479 1476 1474 1471 1468 1465 1461 1458 1454
1449 1451 1451 1453 1444 1437 1422 1409 1400 1391 1388 1386 1387 1393 1400 1406 1414 1421 1427 1433 1438 1444 1451 1456 1460 1464 1468 1471 1475 1478 1480 1482 1483 1484 1485 1485 1484 1483 1481 1478 1476 1473 1470 1467 1464 1460 1457 1453 1449
1439 1441 1448 1453 1447 1437 1415 1406 1396 1384 1381 1381 1384 1389 1396 1404 1412 1419 1426 1432 1438 1444 1450 1456 1460 1464 1467 1470 1473 1476 1478 1480 1481 1482 1482 1482 1481 1479 1477 1475 1472 1470 1467 1463 1459 1455 1451 1447 1443
1436 1437 1435 1438 1437 1429 1411 1397 1375 1370 1370 1376 1381 1386 1393 1401 1409 1417 1425 1431 1437 1444 1449 1455 1459 1463 1466 1469 1472 1474 1476 1478 1479 1480 1480 1479 1478 1476 1474 1472 1469 1466 1462 1458 1454 1450 1446 1441 1437
1422 1423 1426 1430 1428 1426 1420 1399 1368 1364 1365 1371 1378 1387 1394 1401 1409 1416 1424 1430 1437 1442 1448 1453 1458 1462 1465 1468 1470 1472 1474 1475 1477 1477 1477 1476 1475 1473 1471 1468 1465 1461 1457 1453 1449 1444 1440 1435 1430